Location: Bergnershof
(48.9468°N, 10.9431°E)
Time: 04:44:12
(UTC+00:00)

USA 307 - Pass Details

Date: 03 March 2021
Orbit: 567 x 577 km, 54.0° (Epoch: 10 April)

Event Time Altitude Azimuth Distance (km) Brightness Sun altitude
Rises 19:56:56 0° 293° (WNW) 2,787 7.7 -28.7°
Reaches altitude 10° 19:59:15 10° 298° (WNW) 1,886 6.5 -29.0°
Enters shadow 20:01:53 34° 317° (NW) 959 4.4 -29.4°
